Погода в Покровке

Россия / Приморский край     46°00′33″N   134°09′30″E
темп.,
°C
ветер,
м/с
пор.,
м/с
влажн.,
%
обл.,
%
осадки,
мм/ч
давл.,
гПа
погр.,
м
3 июля, вс
вс301:00+20ююз2297100 2.9 100636
04:00+19ююз2398100 3.2 100676
07:00+20ююз1497100 1.0 1006185
10:00+23юз469399 3.5 1006551
13:00+23зюз4687100 0.1 1005542
16:00+24юз3683100 0.1 1004499
19:00+23зюз3792100 1.8 1003311
22:00+21юз1295100 1.9 100322
4 июля, пн
пн401:00+20ююз2296100 0.2 100436
04:00+19ююз239733 0.5 100446
07:00+20ю13967 0.0 1005122
10:00+24юз2381100 0.0 1004668
13:00+28з236919 0.4 10041204
16:00+28юз127423 2.3 10031012
19:00+26з128850 1.8 100498
22:00+22ююв1191100 2.6 100511
5 июля, вт
вт501:00+21ююв2296100 2.4 100523
04:00+20ююв1197100 4.1 100619
07:00+21ююв1297100 1.9 100795
10:00+24ю2384100 2.0 1007633
13:00+27зюз2371100 0.1 1007951
16:00+29з3369100 0.1 1006940
19:00+27ссз118563 1.8 100696
22:00+23юв1192100 2.3 100711
6 июля, ср
ср601:00+21ююз1197100 4.4 100812
04:00+21юв1196100 4.6 100914
07:00+21вюв1197100 0.0 101052
10:00+24ююв238464 0.0 1010483
13:00+29ююз236668 0.0 10091247
16:00+30зсз336919 0.3 10071119
19:00+28ссз238312 0.1 1007184
22:00+23зюз359619 0.3 1008111
7 июля, чт
чт701:00+21зюз229760 0.4 100927
04:00+20ююв0198100 0.4 100911
07:00+21юв239762 0.0 1009159
10:00+26ю4672100 0.0 1009784
13:00+29ю476299 0.0 10071731
16:00+27ю1475100 0.2 1006292
19:00+24з2592100 1.8 1006156
22:00+21зюз2297100 2.1 100631